Temperature
11 11 11 11 11 11 11 11 11 11 12 12 12 12 12 12 12 11 11 11 11 11 11 11 10 10 10 10 10 10 10 9 9 9 9 9 9 9 8 8 8 8 8
11 10 10 10 10 10 11 11 11 11 11 11 11 11 11 11 11 11 11 11 11 11 11 11 10 10 10 9 9 9 9 9 9 8 8 8 8 8 8 8 8 8 8
10 10 9 9 10 10 10 10 10 10 10 10 11 11 11 11 10 11 11 11 11 11 11 10 10 10 10 9 9 9 9 8 8 8 7 7 7 7 7 7 7 7 7
10 9 9 9 9 9 9 10 10 10 10 10 10 10 10 10 10 10 10 10 10 10 10 10 10 9 9 9 9 9 8 8 8 7 7 7 7 6 6 7 7 7 7
9 9 8 8 8 8 9 9 9 9 9 9 9 10 10 10 10 10 10 10 10 10 10 10 9 9 9 9 9 8 8 8 7 7 7 6 6 6 6 6 6 6 6
9 9 8 8 8 8 8 8 9 9 9 9 9 9 9 9 9 9 9 9 9 9 9 9 9 9 9 8 8 8 8 8 7 7 7 6 6 6 6 6 5 5 6
9 8 8 7 7 7 8 8 8 8 8 8 9 9 9 9 9 9 9 9 9 9 9 9 9 9 8 8 8 8 7 7 7 7 7 6 6 6 6 5 5 5 5
8 8 8 7 7 7 7 7 7 8 8 8 8 8 8 8 8 8 8 8 8 8 8 8 8 8 8 8 8 7 7 7 7 7 6 6 6 5 5 5 5 5 4
7 7 7 7 7 7 7 7 7 7 7 7 7 7 7 7 7 7 8 8 8 8 8 8 8 8 8 8 7 7 7 7 7 6 6 6 6 5 5 5 5 4 4
6 6 6 6 6 6 6 6 6 6 7 7 7 7 7 7 7 7 7 7 7 7 7 8 8 8 8 7 7 7 6 6 6 6 6 6 6 5 5 5 5 4 4
6 5 5 6 6 6 6 6 6 6 6 6 6 6 6 6 6 7 7 7 7 7 7 7 7 7 7 7 7 7 6 6 6 6 6 6 5 5 5 5 5 4 4
5 5 5 5 5 5 5 5 5 5 5 5 5 5 5 6 6 6 6 6 6 6 7 7 7 7 7 7 7 6 6 6 6 6 6 5 5 5 5 5 4 4 4
4 4 4 4 4 4 4 5 5 5 5 5 5 5 5 5 5 5 5 6 6 6 6 6 6 6 6 6 6 6 6 6 6 5 5 5 5 5 4 4 4 4 4
4 3 3 3 3 3 4 4 4 4 4 4 4 4 4 4 5 5 5 5 5 5 6 6 6 6 6 6 6 5 5 5 5 5 5 5 4 4 4 4 4 4 4
3 3 3 3 3 3 3 3 4 4 4 4 4 4 4 4 4 4 4 4 5 5 5 5 5 5 5 5 5 5 5 5 5 4 4 4 4 4 4 4 4 4 4
2 2 2 2 2 2 3 3 3 3 3 3 3 3 3 3 3 4 4 4 4 4 5 5 5 5 5 5 5 5 4 4 4 4 4 4 4 4 4 4 4 4 3
2 2 2 2 2 2 2 3 3 3 3 3 3 3 3 3 3 3 3 3 4 4 4 4 4 4 4 4 4 4 4 4 4 4 3 3 3 3 3 3 3 3 3
1 1 1 1 1 2 2 2 2 2 2 2 2 2 2 3 3 3 3 3 3 3 4 4 4 4 4 4 4 4 4 4 3 3 3 3 3 3 3 3 3 3 3
1 1 1 1 1 1 2 2 2 2 2 2 2 2 2 2 2 2 2 2 3 3 3 3 3 3 3 3 3 3 3 3 3 3 3 3 3 3 3 3 3 3 3
0 0 1 1 1 1 1 1 1 1 1 1 1 2 2 2 2 2 2 2 2 2 2 3 3 3 3 3 3 3 3 3 3 3 3 2 2 3 3 3 3 2 2
-0 -0 0 0 0 0 1 1 1 1 1 1 1 1 1 1 1 1 1 2 2 2 2 2 2 2 2 2 2 2 2 2 2 2 2 2 2 2 2 2 2 2 2
-1 -1 -1 -1 -0 -0 -0 -0 0 0 0 0 1 1 1 1 1 1 1 1 1 1 1 1 1 2 2 2 2 2 2 2 2 2 2 2 2 2 2 2 2 2 2
-1 -1 -1 -1 -1 -1 -1 -1 -0 -0 -0 -0 0 0 0 0 0 0 1 1 1 1 1 1 1 1 1 1 1 1 1 1 1 1 1 1 1 2 2 1 1 1 1
-2 -2 -2 -1 -1 -1 -1 -1 -1 -1 -1 -1 -1 -1 -1 -0 -0 -0 0 0 0 0 0 0 0 1 1 1 1 1 1 1 1 1 1 1 1 1 1 1 1 1 1
-2 -2 -2 -2 -2 -2 -1 -1 -1 -1 -1 -1 -1 -1 -1 -1 -1 -1 -0 -0 -0 -0 -0 -0 -0 0 1 1 1 0 1 1 1 1 1 1 1 1 1 1 1 1 1
-3 -3 -3 -2 -2 -2 -2 -2 -2 -2 -2 -2 -2 -2 -2 -2 -1 -1 -1 -1 -1 -1 -1 -1 -1 -0 -0 -0 0 0 1 1 0 1 1 1 0 0 0 1 1 1 0
Wind_Speed
4 4 5 4 5 5 5 4 4 3 3 2 2 2 2 1 2 2 3 3 3 2 2 1 1 1 1 0 1 1 1 1 1 2 2 3 2 1 1 1 2 3 4
4 4 4 4 3 4 4 4 3 3 3 2 2 1 2 1 2 2 3 3 3 2 1 1 1 1 1 1 1 1 1 1 2 1 1 2 3 3 3 2 2 2 3
5 4 4 3 3 3 3 3 3 3 3 3 2 3 3 2 2 1 1 1 2 2 2 1 1 1 1 1 1 1 1 0 2 1 0 1 2 4 3 2 2 3 3
5 4 4 4 3 3 3 3 3 3 3 3 3 3 2 1 1 1 1 1 2 2 2 1 1 1 1 1 1 1 0 1 1 1 1 1 1 1 3 3 3 3 3
5 5 4 4 3 3 3 2 3 3 3 3 2 2 2 1 1 1 1 1 1 2 2 2 1 1 1 2 2 1 1 1 1 1 1 1 1 1 2 4 4 4 3
5 5 4 4 3 3 3 2 3 2 2 2 2 2 2 2 2 1 1 1 1 1 1 1 1 0 1 2 2 2 1 1 1 1 1 1 1 2 2 3 4 4 4
5 5 5 4 3 3 3 3 3 2 2 2 1 2 2 1 2 1 1 1 1 1 1 0 0 0 0 0 1 1 2 2 2 2 1 1 1 1 2 2 4 4 4
4 5 5 4 3 3 3 3 2 2 2 2 1 1 2 1 1 1 0 1 1 1 1 1 0 0 1 0 0 1 2 2 2 2 2 1 1 1 1 1 2 4 3
4 4 4 4 3 3 3 2 2 2 2 1 2 2 1 2 1 1 1 0 0 0 1 1 1 0 0 0 1 2 2 2 2 2 2 1 1 1 1 1 1 2 4
4 4 3 3 3 3 2 2 2 2 1 2 2 2 2 2 1 1 1 1 1 0 1 1 1 1 1 1 1 2 2 2 2 1 2 1 1 1 1 1 2 2 2
3 3 3 3 3 3 2 3 2 2 2 2 2 2 2 2 1 1 1 1 1 0 1 1 0 1 1 1 1 1 2 2 2 1 2 2 1 1 2 2 2 2 2
4 3 3 3 3 3 3 3 2 2 2 2 2 2 2 2 2 1 1 1 1 0 1 1 1 0 1 1 1 2 1 2 2 2 2 2 2 2 2 2 2 2 2
4 4 3 3 3 3 2 2 2 2 2 2 2 2 2 2 2 2 2 2 2 1 0 1 1 1 1 1 1 1 2 2 3 3 2 2 2 3 2 2 2 2 2
4 4 3 3 3 3 3 2 2 2 2 2 2 2 2 2 2 2 2 2 2 1 0 1 1 1 1 1 1 1 1 2 2 2 2 2 2 3 3 2 3 2 2
4 3 3 3 3 3 3 3 3 3 2 1 1 1 2 2 2 2 2 2 2 1 1 0 0 0 1 1 1 1 1 2 2 2 2 2 2 2 2 2 2 2 2
3 3 4 4 3 3 3 3 2 2 2 2 1 1 1 2 2 2 2 2 2 2 1 1 0 1 1 2 2 2 1 1 1 2 2 1 1 2 2 3 3 3 2
3 3 3 3 3 3 2 2 2 2 2 2 2 2 2 1 2 2 2 1 2 2 1 1 1 1 2 2 2 2 1 1 1 1 1 2 2 2 1 2 3 3 4
3 3 2 3 3 3 3 2 2 2 2 2 2 2 2 2 2 2 2 2 1 1 1 1 1 1 2 2 2 3 1 1 1 1 1 1 2 2 1 1 2 2 3
3 3 3 2 2 2 2 2 2 2 2 2 2 2 2 2 2 2 2 2 2 2 1 1 1 1 1 2 2 2 1 1 1 1 1 1 1 2 1 1 1 2 3
4 3 3 2 2 3 2 2 1 1 2 3 3 3 2 2 2 2 2 2 2 2 1 1 1 1 1 1 2 2 1 1 1 1 1 1 2 2 1 1 1 1 2
4 4 3 2 2 2 2 2 1 2 3 3 3 3 2 2 2 1 1 2 2 1 1 1 1 1 1 1 1 2 1 1 1 1 1 1 3 3 1 0 1 1 0
4 4 3 3 3 2 2 2 2 2 3 3 3 3 3 2 2 1 1 1 1 1 1 1 1 1 1 1 1 1 2 2 1 1 1 1 2 3 2 1 2 2 2
4 4 3 3 3 3 2 2 3 2 2 2 3 3 3 3 2 1 1 1 1 1 1 1 1 1 1 1 2 2 2 2 1 1 1 2 2 3 2 2 3 2 1
4 4 3 3 3 3 3 2 3 2 2 2 2 2 2 2 2 2 1 1 1 1 1 1 1 2 2 1 1 1 1 1 1 1 1 2 3 3 3 2 2 1 1
4 3 3 3 4 4 3 3 3 2 2 2 2 2 2 2 2 1 1 1 1 1 1 1 2 2 2 3 3 2 1 1 0 1 1 1 1 2 2 2 2 1 2
3 3 3 3 4 4 3 3 3 2 2 2 2 2 2 2 2 1 2 3 2 3 3 3 2 2 3 3 3 2 2 0 2 2 1 1 1 1 1 1 1 1 1
Wind_Direction
128 110 101 94 96 99 102 104 101 102 101 98 100 124 129 122 103 87 95 112 115 114 98 71 96 105 139 144 90 86 44 7 7 9 339 319 301 342 338 3 347 347 348
130 123 116 108 98 100 104 108 103 112 116 107 105 120 124 129 116 80 81 87 84 92 105 98 125 101 110 73 65 70 64 1 15 14 351 342 334 342 322 329 330 339 343
142 139 123 110 104 101 105 107 104 106 106 100 88 80 73 70 68 84 116 86 90 84 87 95 126 125 139 148 168 144 92 228 322 355 60 14 305 323 316 327 344 341 336
145 142 130 116 101 97 99 102 98 99 97 100 102 114 112 131 164 148 149 121 93 89 88 110 111 138 148 161 183 175 201 171 236 306 334 290 286 315 312 320 330 334 331
144 141 134 125 106 94 94 96 101 90 94 101 114 125 121 113 92 97 101 121 122 104 86 87 92 158 176 176 181 206 215 193 212 247 318 318 313 279 278 300 317 323 319
135 134 125 117 103 97 94 90 101 93 83 95 108 109 108 104 99 92 131 145 133 135 81 65 76 95 189 193 193 195 208 223 239 263 285 288 291 297 293 296 309 310 312
130 132 131 131 122 114 104 91 95 91 83 78 75 98 97 112 141 148 171 161 150 166 194 112 129 157 326 215 172 195 215 217 232 249 270 286 290 299 305 299 304 310 309
120 130 136 135 128 123 116 105 99 93 89 80 54 72 70 65 89 101 136 174 176 186 189 147 115 39 348 336 229 210 218 210 229 258 270 282 286 296 284 277 307 315 311
85 94 106 113 112 120 120 113 110 102 102 93 61 66 69 54 49 41 45 52 62 118 79 150 163 163 226 232 204 220 211 203 218 231 240 263 275 274 290 286 273 283 301
74 82 92 98 99 109 113 109 104 111 101 85 69 47 46 49 55 51 41 21 8 44 132 127 160 164 176 199 199 223 209 213 226 224 241 267 287 289 283 274 275 265 273
83 84 84 88 87 83 101 99 83 73 70 70 62 53 42 33 38 54 24 350 352 115 157 155 178 183 195 219 221 236 217 216 227 237 246 259 278 281 277 275 277 279 274
79 76 76 71 76 77 77 84 84 70 52 56 56 51 45 25 19 25 4 354 24 109 159 142 134 193 218 216 221 246 264 226 221 227 231 250 260 270 275 270 269 275 271
72 68 70 66 59 56 65 68 65 60 47 47 49 45 29 20 15 14 6 13 25 16 65 135 164 201 235 230 244 246 256 251 227 220 224 241 246 260 277 281 286 288 297
64 56 60 58 48 46 45 54 50 48 41 44 46 43 19 15 13 9 4 5 6 360 315 202 190 194 210 246 280 275 262 263 254 231 226 236 243 252 264 275 283 294 299
57 47 41 41 40 36 30 38 44 37 25 38 36 26 22 19 9 359 4 0 349 338 324 346 169 202 204 254 307 300 282 258 271 254 232 239 264 292 295 295 295 301 300
43 33 27 27 30 28 18 19 31 18 16 25 13 27 33 10 354 350 356 354 341 337 343 338 312 310 284 303 334 339 286 280 266 266 248 255 254 293 315 328 333 325 288
26 21 15 12 12 9 0 358 11 8 16 14 13 32 23 358 345 337 340 329 326 331 329 327 314 288 302 318 324 333 311 278 279 281 266 275 293 301 281 334 350 342 337
4 360 5 2 357 355 353 11 25 16 10 15 20 10 1 348 341 331 321 314 315 307 306 309 316 320 313 326 327 340 328 291 296 298 291 276 283 278 316 351 352 349 346
357 355 357 357 355 357 2 29 30 16 15 11 4 353 343 327 321 312 304 305 303 300 294 299 308 306 285 305 329 357 319 326 324 320 314 319 294 327 36 80 350 345 346
10 360 357 5 4 356 7 32 24 12 355 353 349 339 326 308 295 293 299 309 292 284 299 308 304 294 281 307 336 3 320 317 326 331 340 14 1 341 53 177 197 277 319
2 3 3 359 354 356 11 14 6 350 344 350 348 339 328 309 297 295 307 310 310 308 312 314 321 324 330 318 350 5 345 301 301 321 333 334 1 6 7 37 223 226 58
358 2 0 354 355 4 16 4 351 351 356 352 347 340 335 328 335 329 314 310 321 314 305 327 337 344 340 335 328 353 356 349 288 286 305 330 2 19 32 77 61 71 69
351 355 358 351 351 1 15 358 342 353 352 350 344 340 342 344 344 340 321 317 310 286 299 319 314 325 334 309 320 327 342 2 358 329 1 17 34 37 41 57 63 62 66
348 352 351 346 344 353 2 352 346 353 350 340 339 342 349 348 354 357 351 335 302 278 279 285 291 305 317 316 315 316 329 13 22 32 55 62 65 47 40 60 51 39 54
336 340 337 333 332 343 348 343 346 349 338 328 334 340 337 331 341 355 359 327 317 291 282 268 272 274 283 301 309 319 316 334 28 75 72 60 55 43 26 23 28 35 46
332 333 328 322 324 332 333 332 338 337 327 322 330 333 326 320 326 339 357 8 354 357 346 337 321 308 306 311 305 305 303 259 128 102 121 122 90 57 23 12 18 24 27
Height
1487 1489 1489 1491 1492 1493 1494 1495 1497 1498 1500 1501 1503 1505 1507 1509 1510 1512 1513 1514 1515 1516 1516 1516 1517 1517 1517 1517 1517 1517 1517 1517 1516 1516 1515 1515 1515 1515 1514 1513 1512 1511 1510
1485 1487 1488 1489 1490 1491 1492 1494 1495 1496 1498 1499 1501 1503 1505 1507 1508 1510 1511 1512 1513 1514 1514 1514 1514 1515 1515 1515 1516 1516 1515 1515 1515 1515 1513 1513 1514 1513 1512 1512 1510 1509 1508
1483 1485 1487 1488 1489 1489 1490 1492 1493 1495 1496 1498 1499 1501 1503 1504 1506 1507 1509 1510 1511 1511 1512 1512 1512 1513 1513 1513 1514 1514 1514 1514 1515 1515 1515 1514 1512 1511 1511 1510 1509 1508 1506
1482 1484 1485 1486 1487 1488 1489 1491 1492 1493 1495 1496 1497 1498 1500 1502 1503 1505 1506 1508 1508 1509 1510 1510 1510 1511 1511 1511 1512 1512 1513 1513 1513 1513 1513 1514 1513 1511 1509 1508 1507 1506 1504
1480 1482 1483 1484 1486 1487 1488 1489 1490 1492 1493 1494 1495 1497 1498 1500 1502 1503 1504 1505 1506 1507 1507 1508 1508 1509 1509 1509 1510 1510 1511 1511 1511 1511 1511 1511 1511 1510 1509 1505 1504 1503 1502
1479 1480 1482 1483 1484 1485 1486 1487 1489 1490 1491 1493 1494 1495 1496 1498 1499 1500 1501 1502 1503 1504 1505 1506 1506 1507 1507 1507 1508 1508 1509 1509 1509 1509 1509 1509 1508 1507 1507 1505 1502 1500 1499
1477 1479 1480 1482 1483 1484 1485 1486 1487 1488 1489 1491 1492 1493 1495 1496 1497 1498 1499 1500 1501 1501 1502 1503 1504 1504 1505 1505 1506 1506 1506 1507 1507 1507 1507 1507 1507 1506 1505 1503 1501 1499 1497
1476 1477 1479 1480 1482 1482 1483 1484 1485 1486 1488 1489 1490 1491 1493 1494 1495 1496 1497 1497 1498 1499 1500 1501 1501 1502 1503 1503 1503 1504 1504 1504 1504 1504 1504 1504 1504 1503 1503 1502 1500 1496 1494
1475 1477 1478 1479 1481 1482 1482 1483 1484 1485 1486 1487 1488 1489 1490 1491 1492 1493 1494 1495 1496 1496 1497 1498 1499 1499 1500 1500 1501 1501 1501 1501 1502 1502 1502 1501 1501 1501 1500 1499 1498 1497 1493
1476 1477 1478 1479 1480 1480 1481 1482 1483 1484 1484 1485 1486 1487 1488 1489 1490 1491 1492 1492 1493 1494 1494 1495 1496 1496 1497 1497 1498 1498 1499 1499 1499 1499 1499 1498 1498 1498 1497 1497 1496 1495 1493
1476 1477 1477 1478 1479 1479 1480 1480 1481 1482 1483 1483 1484 1485 1486 1487 1487 1488 1489 1490 1490 1491 1491 1492 1493 1493 1494 1494 1495 1495 1495 1496 1496 1496 1496 1495 1495 1495 1494 1494 1493 1492 1491
1476 1476 1477 1477 1477 1478 1479 1479 1480 1481 1481 1482 1482 1483 1484 1484 1485 1486 1486 1487 1487 1488 1489 1489 1490 1490 1491 1491 1492 1492 1492 1492 1493 1493 1493 1492 1492 1492 1491 1491 1490 1489 1488
1476 1476 1476 1477 1477 1477 1477 1478 1479 1479 1480 1480 1481 1481 1482 1482 1483 1483 1484 1484 1485 1485 1486 1486 1487 1487 1488 1488 1489 1489 1490 1490 1489 1490 1489 1489 1489 1488 1488 1488 1487 1486 1486
1476 1476 1476 1476 1476 1476 1476 1477 1477 1478 1479 1479 1479 1480 1480 1480 1481 1481 1482 1482 1482 1483 1483 1484 1484 1485 1485 1485 1486 1486 1486 1486 1487 1487 1486 1486 1486 1485 1485 1485 1484 1484 1482
1477 1476 1476 1476 1476 1475 1475 1475 1476 1476 1477 1477 1478 1478 1478 1479 1479 1479 1479 1480 1480 1480 1481 1481 1482 1482 1482 1483 1483 1483 1483 1483 1483 1483 1483 1483 1483 1483 1483 1482 1481 1481 1479
1476 1476 1476 1475 1475 1474 1474 1474 1474 1475 1475 1476 1476 1476 1476 1476 1477 1477 1477 1477 1477 1478 1478 1478 1479 1479 1480 1480 1480 1481 1480 1480 1480 1480 1480 1480 1480 1480 1480 1479 1479 1478 1477
1476 1475 1475 1474 1474 1473 1473 1473 1473 1473 1474 1474 1474 1474 1474 1475 1475 1475 1475 1475 1475 1475 1475 1476 1476 1476 1477 1477 1477 1477 1477 1477 1477 1477 1477 1477 1477 1477 1477 1476 1476 1475 1474
1475 1474 1474 1473 1473 1472 1472 1472 1472 1472 1472 1472 1472 1472 1473 1473 1472 1472 1472 1472 1472 1472 1473 1473 1473 1474 1474 1474 1474 1474 1474 1474 1474 1474 1474 1474 1474 1474 1474 1473 1472 1472 1471
1474 1473 1473 1472 1471 1471 1470 1470 1470 1470 1470 1470 1470 1470 1470 1470 1470 1470 1470 1470 1470 1470 1470 1471 1471 1471 1471 1471 1471 1471 1471 1471 1471 1471 1471 1471 1471 1472 1471 1471 1470 1469 1468
1472 1472 1471 1470 1469 1469 1469 1468 1468 1468 1468 1468 1468 1468 1468 1468 1468 1468 1468 1468 1468 1468 1468 1468 1468 1469 1469 1469 1468 1468 1468 1468 1468 1468 1468 1468 1469 1469 1468 1468 1467 1466 1465
1471 1470 1469 1469 1468 1467 1467 1467 1466 1466 1466 1466 1466 1466 1466 1465 1465 1465 1465 1465 1465 1465 1465 1465 1466 1466 1466 1466 1466 1466 1465 1465 1465 1465 1465 1465 1466 1466 1465 1465 1465 1464 1464
1470 1469 1468 1467 1467 1466 1466 1465 1464 1464 1464 1464 1463 1463 1463 1463 1463 1463 1463 1463 1463 1463 1463 1463 1463 1463 1463 1463 1463 1463 1463 1463 1463 1463 1463 1463 1463 1463 1463 1462 1462 1462 1462
1468 1467 1466 1465 1465 1465 1464 1463 1463 1462 1462 1461 1461 1461 1460 1460 1460 1460 1460 1460 1460 1460 1460 1460 1460 1461 1461 1461 1461 1461 1461 1461 1461 1461 1461 1461 1461 1460 1460 1460 1460 1460 1460
1467 1466 1465 1464 1463 1463 1462 1462 1461 1460 1460 1459 1458 1458 1458 1458 1458 1458 1458 1458 1458 1458 1458 1458 1458 1458 1459 1459 1459 1459 1458 1458 1458 1458 1458 1458 1458 1459 1458 1458 1458 1458 1458
1465 1464 1463 1462 1461 1460 1460 1460 1459 1458 1457 1457 1456 1456 1455 1455 1455 1455 1456 1456 1456 1456 1456 1456 1456 1456 1456 1457 1457 1456 1456 1456 1456 1456 1456 1456 1456 1456 1456 1456 1456 1456 1456
1463 1462 1461 1460 1459 1458 1457 1457 1457 1456 1455 1454 1454 1453 1453 1453 1453 1453 1453 1453 1454 1454 1454 1454 1454 1454 1454 1454 1454 1454 1454 1454 1454 1454 1453 1453 1453 1454 1454 1454 1454 1455 1455